Location: Unspecified
(0.0000°N, 0.0000°E)
Time: 05:43:25
(UTC+00:00)

A-11 Canister half - Pass Details

Date: 21 April 2026
Orbit: 1523 x 1685 km, 47.3° (Epoch: 13 May)

Event Time Altitude Azimuth Distance (km) Brightness Sun altitude
Rises 22:04:31 0° 252° (WSW) 4,768 11.9 -59.2°
Reaches altitude 10° 22:08:31 10° 266° (W) 3,809 11.3 -60.1°
Enters shadow 22:10:37 15° 277° (W) 3,410 11.0 -60.6°
Maximum altitude 22:15:33 22° 313° (NW) 2,989 - -61.7°
Drops below altitude 10° 22:22:45 10° 1° (N) 3,892 - -63.3°
Sets 22:26:59 0° 15° (NNE) 4,898 - -64.2°
